• In Deutschland
  • Länderverzeichnis
  • Für 7 Tage
  • Wassertemperatur
  • Satellitenkarten
  • Wetterkarte
  • Widgets
  • user-avatar
    Anmelden

    Stündliche Wetter Heidelberg

    Heute, 24 Juni, Sonntag

    Zeit Temperatur Niederschläge Wind Luftdruck Luftfeuchtigkeit
    00:00 +12°C° 0 mm 1 m/S 749 mmHg 83%
    01:00 +12°C° 0 mm 1 m/S 749 mmHg 84%
    02:00 +11°C° 0 mm 1 m/S 748 mmHg 84%
    03:00 +10°C° 0 mm 0 m/S 748 mmHg 85%
    04:00 +10°C° 0 mm 0 m/S 748 mmHg 86%
    05:00 +11°C° 0 mm 0 m/S 748 mmHg 81%
    06:00 +12°C° 0 mm 0 m/S 748 mmHg 77%
    07:00 +14°C° 0 mm 0 m/S 748 mmHg 72%
    08:00 +15°C° 0 mm 0 m/S 748 mmHg 66%
    09:00 +19°C° 0 mm 1 m/S 748 mmHg 60%
    10:00 +20°C° 0 mm 1 m/S 747 mmHg 54%
    11:00 +21°C° 0 mm 1 m/S 747 mmHg 53%
    12:00 +20°C° 0 mm 2 m/S 747 mmHg 51%
    13:00 +21°C° 0 mm 2 m/S 747 mmHg 50%
    14:00 +21°C° 0 mm 2 m/S 747 mmHg 49%
    15:00 +21°C° 0 mm 2 m/S 747 mmHg 49%
    16:00 +22°C° 0 mm 3 m/S 746 mmHg 49%
    17:00 +21°C° 0 mm 3 m/S 746 mmHg 55%
    18:00 +20°C° 0 mm 2 m/S 746 mmHg 60%
    19:00 +19°C° 0 mm 2 m/S 746 mmHg 66%
    20:00 +18°C° 0 mm 2 m/S 747 mmHg 69%
    21:00 +16°C° 0 mm 2 m/S 747 mmHg 72%
    22:00 +15°C° 0 mm 2 m/S 747 mmHg 75%
    23:00 +15°C° 0 mm 2 m/S 747 mmHg 76%

    Morgen, 25 Juni, Montag

    Zeit Temperatur Niederschläge Wind Luftdruck Luftfeuchtigkeit
    00:00 +15°C° 0 mm 1 m/S 747 mmHg 78%
    01:00 +14°C° 0 mm 1 m/S 747 mmHg 80%
    02:00 +14°C° 0 mm 1 m/S 747 mmHg 82%
    03:00 +13°C° 0 mm 1 m/S 747 mmHg 84%
    04:00 +13°C° 0 mm 1 m/S 747 mmHg 87%
    05:00 +14°C° 0 mm 1 m/S 748 mmHg 85%
    06:00 +15°C° 0 mm 1 m/S 748 mmHg 83%
    07:00 +15°C° 0 mm 1 m/S 748 mmHg 81%
    08:00 +16°C° 0,1 mm 2 m/S 748 mmHg 76%
    09:00 +17°C° 0,1 mm 2 m/S 748 mmHg 70%
    10:00 +19°C° 0,1 mm 2 m/S 748 mmHg 64%
    11:00 +19°C° 0 mm 2 m/S 748 mmHg 62%
    12:00 +20°C° 0 mm 2 m/S 748 mmHg 60%
    13:00 +20°C° 0 mm 2 m/S 748 mmHg 58%
    14:00 +21°C° 0 mm 3 m/S 748 mmHg 58%
    15:00 +21°C° 0 mm 3 m/S 748 mmHg 57%
    16:00 +21°C° 0 mm 3 m/S 748 mmHg 57%
    17:00 +21°C° 0 mm 2 m/S 748 mmHg 60%
    18:00 +21°C° 0 mm 2 m/S 748 mmHg 63%
    19:00 +20°C° 0 mm 2 m/S 748 mmHg 66%
    20:00 +20°C° 0 mm 1 m/S 748 mmHg 70%
    21:00 +19°C° 0 mm 1 m/S 748 mmHg 74%
    22:00 +16°C° 0 mm 1 m/S 749 mmHg 78%
    23:00 +16°C° 0 mm 1 m/S 748 mmHg 79%

    übermorgen, 26 Juni, Dienstag

    Zeit Temperatur Niederschläge Wind Luftdruck Luftfeuchtigkeit
    00:00 +14°C° 0 mm 0 m/S 748 mmHg 81%
    01:00 +14°C° 0 mm 0 m/S 748 mmHg 82%
    02:00 +14°C° 0 mm 0 m/S 748 mmHg 83%
    03:00 +14°C° 0 mm 0 m/S 748 mmHg 84%
    04:00 +13°C° 0 mm 0 m/S 748 mmHg 85%
    05:00 +15°C° 0 mm 1 m/S 748 mmHg 82%
    06:00 +16°C° 0 mm 1 m/S 748 mmHg 79%
    07:00 +18°C° 0 mm 1 m/S 748 mmHg 76%
    08:00 +20°C° 0 mm 1 m/S 748 mmHg 71%
    09:00 +21°C° 0 mm 1 m/S 748 mmHg 66%
    10:00 +21°C° 0 mm 2 m/S 748 mmHg 61%
    11:00 +23°C° 0 mm 2 m/S 748 mmHg 60%
    12:00 +23°C° 0 mm 2 m/S 748 mmHg 59%
    13:00 +23°C° 0 mm 2 m/S 748 mmHg 58%
    14:00 +24°C° 0 mm 2 m/S 748 mmHg 56%
    15:00 +24°C° 0 mm 2 m/S 748 mmHg 54%
    16:00 +25°C° 0 mm 3 m/S 747 mmHg 53%
    17:00 +24°C° 0 mm 2 m/S 747 mmHg 56%
    18:00 +24°C° 0 mm 2 m/S 747 mmHg 60%
    19:00 +23°C° 0 mm 2 m/S 748 mmHg 64%
    20:00 +21°C° 0 mm 2 m/S 748 mmHg 68%
    21:00 +19°C° 0 mm 2 m/S 748 mmHg 73%
    22:00 +19°C° 0 mm 1 m/S 748 mmHg 77%
    23:00 +18°C° 0 mm 1 m/S 748 mmHg 79%

    27 Juni, Mittwoch

    Zeit Temperatur Niederschläge Wind Luftdruck Luftfeuchtigkeit
    00:00 +16°C° 0 mm 1 m/S 748 mmHg 82%
    01:00 +16°C° 0 mm 1 m/S 748 mmHg 84%
    02:00 +15°C° 0 mm 1 m/S 748 mmHg 86%
    03:00 +15°C° 0 mm 1 m/S 748 mmHg 87%
    04:00 +14°C° 0 mm 1 m/S 748 mmHg 89%
    05:00 +15°C° 0 mm 1 m/S 748 mmHg 85%
    06:00 +18°C° 0 mm 1 m/S 748 mmHg 81%
    07:00 +19°C° 0 mm 1 m/S 748 mmHg 78%
    08:00 +19°C° 0 mm 2 m/S 748 mmHg 71%
    09:00 +21°C° 0 mm 2 m/S 748 mmHg 64%
    10:00 +24°C° 0 mm 3 m/S 748 mmHg 58%
    11:00 +25°C° 0 mm 3 m/S 748 mmHg 54%
    12:00 +26°C° 0 mm 3 m/S 747 mmHg 50%
    13:00 +27°C° 0 mm 3 m/S 747 mmHg 47%
    14:00 +27°C° 0 mm 3 m/S 747 mmHg 47%
    15:00 +27°C° 0 mm 3 m/S 747 mmHg 48%
    16:00 +28°C° 0 mm 3 m/S 747 mmHg 48%
    17:00 +27°C° 0 mm 3 m/S 746 mmHg 53%
    18:00 +26°C° 0 mm 3 m/S 746 mmHg 57%
    19:00 +25°C° 0 mm 2 m/S 746 mmHg 61%
    20:00 +24°C° 0 mm 2 m/S 746 mmHg 65%
    21:00 +21°C° 0 mm 2 m/S 746 mmHg 69%
    22:00 +19°C° 0 mm 2 m/S 747 mmHg 73%
    23:00 +19°C° 0 mm 2 m/S 746 mmHg 76%

    28 Juni, Donnerstag

    Zeit Temperatur Niederschläge Wind Luftdruck Luftfeuchtigkeit
    00:00 +18°C° 0 mm 2 m/S 746 mmHg 78%
    01:00 +18°C° 0 mm 1 m/S 746 mmHg 81%
    02:00 +16°C° 0 mm 1 m/S 746 mmHg 82%
    03:00 +16°C° 0 mm 2 m/S 746 mmHg 84%
    04:00 +15°C° 0 mm 2 m/S 746 mmHg 85%
    05:00 +16°C° 0 mm 2 m/S 746 mmHg 82%
    06:00 +17°C° 0 mm 2 m/S 746 mmHg 78%
    07:00 +17°C° 0 mm 2 m/S 746 mmHg 74%
    08:00 +19°C° 0 mm 3 m/S 746 mmHg 68%
    09:00 +20°C° 0 mm 3 m/S 746 mmHg 62%
    10:00 +22°C° 0 mm 3 m/S 745 mmHg 56%
    11:00 +24°C° 0 mm 3 m/S 745 mmHg 53%
    12:00 +25°C° 0 mm 3 m/S 745 mmHg 50%
    13:00 +26°C° 0 mm 3 m/S 745 mmHg 47%
    14:00 +26°C° 0 mm 3 m/S 744 mmHg 47%
    15:00 +26°C° 0 mm 3 m/S 744 mmHg 47%
    16:00 +26°C° 0 mm 3 m/S 744 mmHg 46%
    17:00 +25°C° 0 mm 3 m/S 744 mmHg 51%
    18:00 +25°C° 0 mm 2 m/S 744 mmHg 55%
    19:00 +24°C° 0 mm 2 m/S 744 mmHg 60%
    20:00 +23°C° 0 mm 2 m/S 744 mmHg 64%
    21:00 +20°C° 0 mm 2 m/S 744 mmHg 68%
    22:00 +19°C° 0 mm 2 m/S 744 mmHg 72%
    23:00 +18°C° 0 mm 2 m/S 744 mmHg 75%

    29 Juni, Freitag

    Zeit Temperatur Niederschläge Wind Luftdruck Luftfeuchtigkeit
    00:00 +18°C° 0 mm 1 m/S 744 mmHg 78%
    01:00 +18°C° 0 mm 1 m/S 744 mmHg 80%
    02:00 +18°C° 0 mm 1 m/S 743 mmHg 82%
    03:00 +16°C° 0 mm 1 m/S 743 mmHg 84%
    04:00 +16°C° 0 mm 1 m/S 743 mmHg 86%
    05:00 +17°C° 0 mm 2 m/S 743 mmHg 83%
    06:00 +18°C° 0 mm 2 m/S 743 mmHg 79%
    07:00 +19°C° 0 mm 2 m/S 743 mmHg 75%
    08:00 +20°C° 0 mm 2 m/S 743 mmHg 69%
    09:00 +23°C° 0 mm 2 m/S 743 mmHg 62%
    10:00 +24°C° 0 mm 3 m/S 743 mmHg 56%
    11:00 +25°C° 0 mm 3 m/S 743 mmHg 53%
    12:00 +26°C° 0 mm 3 m/S 743 mmHg 50%
    13:00 +27°C° 0 mm 3 m/S 743 mmHg 47%
    14:00 +27°C° 0,1 mm 3 m/S 743 mmHg 48%
    15:00 +27°C° 0,1 mm 2 m/S 743 mmHg 49%
    16:00 +27°C° 0,1 mm 2 m/S 743 mmHg 50%
    17:00 +26°C° 0,1 mm 2 m/S 743 mmHg 54%
    18:00 +26°C° 0,1 mm 2 m/S 743 mmHg 58%
    19:00 +25°C° 0,1 mm 2 m/S 743 mmHg 61%
    20:00 +24°C° 0 mm 1 m/S 743 mmHg 65%
    21:00 +22°C° 0 mm 1 m/S 743 mmHg 68%
    22:00 +21°C° 0 mm 1 m/S 743 mmHg 71%
    23:00 +20°C° 0 mm 1 m/S 743 mmHg 74%
    Mehr zeigen